Regional Weather Roundup
Issued by NWS

Home | Current Version | Previous Version | Graphics & Text | Print | Product List | Glossary On
Versions: 1 2 3 4 5 6 7 8 9 10 11 12 13 14 15 16 17 18 19 20 21 22 23 24 25 26 27 28 29 30 31 32 33 34 35 36 37 38 39 40 41 42 43 44 45 46 47 48 49 50
000
ASUS45 KBOI 270710
RWRID

IDAHO REGIONAL WEATHER ROUNDUP
NATIONAL WEATHER SERVICE BOISE ID
100 AM MDT WED MAY 27 2015

NOTE: "FAIR" INDICATES FEW OR NO CLOUDS BELOW 12000 FEET
WITH NO SIGNIFICANT WEATHER AND/OR OBSTRUCTIONS TO VISIBILITY

IDZ012-014-270800-
SOUTHWEST IDAHO


CITY           SKY/WX    TMP DP  RH WIND       PRES   REMARKS
BOISE          MOCLDY    62  47  57 SE5       29.93R THUNDER
CALDWELL       MOCLDY    57  43  58 N6        29.93S
MOUNTAIN HOME  CLOUDY    57  45  64 E5        29.93R
$$

IDZ016-017-270800-
SOUTHCENTRAL IDAHO


CITY           SKY/WX    TMP DP  RH WIND       PRES   REMARKS
BURLEY         CLEAR     54  44  69 SE3       30.00R
JEROME         MOCLDY    54  46  74 NE9       29.99R
TWIN FALLS     MOCLDY    58  42  55 S10       29.96R
$$

IDZ019>023-270800-
SOUTHEAST IDAHO


CITY           SKY/WX    TMP DP  RH WIND       PRES   REMARKS
IDAHO FALLS    PTCLDY    45  43  93 N6        30.04S
POCATELLO      CLEAR     52  47  83 CALM      30.03F
REXBURG        MOCLDY    47  45  93 CALM      30.06R
$$

IDZ006-010-011-018-031-032-270800-
CENTRAL IDAHO MOUNTAINS


CITY           SKY/WX    TMP DP  RH WIND       PRES   REMARKS
MCCALL         MOCLDY    51  39  63 N8        30.01R
HAILEY         MOCLDY    45  43  93 NW5       30.07R
STANLEY          N/A     41  35  79 E3        30.07R
SALMON         MOCLDY    54  45  71 NE7       30.00R
CHALLIS        MOCLDY    50  41  71 N6        30.02S
$$

IDZ002-004-006-007-026-270800-
NORTHERN IDAHO


CITY           SKY/WX    TMP DP  RH WIND       PRES   REMARKS
LEWISTON       CLEAR     53  49  86 CALM      29.96R
LOWELL           N/A     52  48  86 VRB3      29.99S
COEUR D`ALENE  PTCLDY    52  46  82 NE6       29.97S
MULLAN PASS    PTCLDY    44  39  82 SE3       30.04S
$$



USA.gov is the U.S. government's official web portal to all federal, state and local government web resources and services.